CAPE
0 0 0 0 0 0 45 407 195 0 111 533 565 472 695 770 571 752 392 461 687 756 659 828 788 560 522 440 443 322 280 382 448 495 478 489 557 619 586 589 672 794 753 837 925 945 995 1069 1175 1252 1440 1566 1646 1881 2064 2073 2130 2235 2118 2030 1956 1835 1704 1739 1668 1630 1619 1576 1635 1434 1248 1647 1452 1436 1493 1700 1886 1957 1905 2174 2257 2554 2322 2885 3082 3206
0 0 0 0 0 0 0 336 66 185 362 415 427 285 402 635 489 699 713 582 737 794 578 720 693 590 684 515 415 306 247 359 380 473 508 511 535 555 640 632 660 715 677 612 739 821 909 954 1055 1191 1399 1588 1714 1946 2041 2114 2203 2330 2222 2281 2115 1785 1796 1729 1713 1527 1687 1686 1713 1787 1736 1543 1566 1629 1588 1773 1842 1883 2036 2505 2596 2554 2651 2993 3149 3269
0 0 0 0 0 0 0 0 0 0 268 442 445 390 525 753 530 924 673 554 742 668 656 482 625 602 740 599 605 430 248 246 373 499 498 517 489 536 528 576 617 546 549 393 494 681 813 874 966 1128 1322 1473 1660 1924 2018 2146 2249 2347 2375 2500 2360 2157 1845 1819 1812 1815 1880 1822 1866 1702 1796 1529 1663 1833 1969 1854 1872 2010 2053 2230 2497 2696 3053 3295 3365 3493
0 0 0 0 0 0 0 0 0 0 0 6 1 20 217 931 641 586 503 361 724 471 672 366 576 752 646 548 625 920 401 416 293 462 474 482 490 459 411 425 468 406 406 315 352 479 652 841 984 1094 1256 1426 1528 1885 1996 2104 2249 2250 2534 2712 2547 2421 2357 2239 1981 2149 2150 1942 1798 1629 1668 1646 1688 1866 1946 1994 2016 2128 2144 2082 2323 2585 3004 3578 3306 3047
0 0 0 0 0 0 0 0 0 0 0 75 2 0 266 639 770 694 626 420 468 485 481 409 418 257 490 553 437 811 945 714 567 414 261 287 456 470 409 317 344 324 309 265 272 367 582 800 900 1100 1251 1390 1530 1748 1988 2027 2042 2057 2499 2705 2619 2499 2445 2425 2318 2216 1895 1760 1598 1652 1611 1659 1810 1896 1988 1948 1986 2116 2197 2142 2325 2443 2837 3171 3093 3046
0 0 0 0 0 0 0 0 0 0 0 6 262 6 154 664 535 814 456 387 362 450 413 248 405 216 24 409 340 667 901 682 609 360 205 177 219 328 306 256 228 230 242 238 257 376 557 772 903 1123 1302 1362 1464 1708 1877 1858 1960 2056 2414 2609 2668 2602 2468 2350 2452 2149 1854 1822 1777 1743 1864 1851 1867 2055 1869 1839 1916 2003 2172 2039 2146 2616 2644 2809 3070 3256
0 0 0 0 0 0 0 0 0 0 0 0 4 199 578 692 785 612 537 581 483 518 694 392 370 438 378 234 394 736 653 600 815 443 262 198 219 194 228 210 173 137 115 156 196 331 449 682 918 1112 1211 1286 1432 1666 1828 1846 1935 2055 2363 2491 2531 2591 2468 2341 2513 2011 1885 1775 1773 1721 1694 1831 1897 2118 2033 2191 1986 2049 2227 2362 2500 2648 2810 2970 2795 2855
0 0 0 0 0 0 0 0 0 0 0 0 0 3 730 876 786 767 747 527 680 547 452 248 322 234 356 370 587 571 524 467 664 534 546 379 212 107 169 155 168 108 75 97 174 318 418 698 820 961 1099 1207 1287 1531 1728 1794 1876 2167 2308 2330 2439 2511 2428 2245 2430 1966 1944 1797 1774 1785 1734 1850 2070 1904 2301 2353 2439 2400 2563 2560 2590 2661 2784 3011 2954 2833
0 0 0 0 0 0 0 0 0 0 0 0 0 327 843 936 870 739 449 586 534 530 416 179 255 266 126 550 609 603 287 234 463 624 607 679 282 118 136 124 117 89 82 78 121 242 391 642 722 909 1071 1108 1179 1392 1632 1715 1885 2088 2145 2230 2282 2351 2418 2269 2334 2105 1966 1893 1814 1810 1778 1979 2051 2158 2434 2334 2354 2495 2630 2712 2829 2935 2931 3042 3042 2976
0 0 0 0 0 0 0 0 0 0 0 130 567 917 975 847 652 499 616 671 350 262 129 278 328 150 16 386 426 432 261 310 365 544 624 691 459 188 91 90 84 70 71 62 100 169 342 565 678 814 990 1056 1127 1298 1494 1599 1725 1900 2043 2099 2098 2200 2294 2246 2288 2233 2115 1965 1946 1998 2056 2085 2372 2339 2696 2614 2749 2798 3051 2770 2906 2926 2961 2906 3004 3058
0 0 0 0 0 0 0 0 0 0 281 596 665 656 576 594 608 498 355 348 274 102 200 236 325 122 88 354 629 472 19 365 475 597 670 815 584 209 101 86 70 25 23 41 79 147 330 464 606 740 877 1043 1043 1184 1398 1466 1587 1700 1852 2018 1963 2153 2176 2270 2338 2272 2238 2083 2004 2024 2304 2490 2607 2612 2819 2939 3154 3194 3123 2885 2863 2855 2979 2948 2900 2904
0 0 0 0 0 0 0 0 0 78 450 468 483 516 347 334 285 235 212 287 345 201 4 262 541 182 64 433 529 526 807 424 558 558 551 845 744 306 134 70 55 32 20 22 50 167 250 463 618 714 822 951 1073 1125 1237 1309 1467 1637 1773 1947 2058 2173 2194 2246 2380 2215 2208 2122 2174 2172 2512 2762 2985 2863 2626 2895 3059 3186 3310 3153 2980 3015 2944 2932 2869 2945
0 0 0 0 0 0 0 0 0 36 242 43 322 125 27 225 278 136 115 74 204 213 0 329 522 75 91 9 372 614 620 735 669 723 617 681 824 602 228 83 64 39 18 7 43 254 230 419 552 604 778 1058 1158 1164 1250 1225 1328 1523 1748 1951 2048 2097 2121 2265 2381 2269 2352 2412 2436 2379 2525 2786 3082 2994 2980 3040 3156 3341 3377 3348 3084 3148 3014 2981 2864 2977
0 0 0 0 0 0 0 0 0 55 5 69 16 20 0 127 71 89 62 48 106 45 3 284 383 146 210 190 302 317 483 639 935 898 835 742 920 839 526 280 183 60 36 17 20 140 185 388 450 574 777 939 1004 1064 1198 1207 1317 1533 1596 1876 1945 2150 2058 2178 2358 2205 2382 2470 2556 2569 2626 2748 2895 2921 2854 2878 2765 3022 3336 3640 3578 3096 2961 3214 2999 2938
0 0 0 0 0 0 0 0 0 57 94 53 169 0 0 19 49 66 64 118 118 378 299 431 192 235 153 528 42 312 285 393 916 1418 1112 1163 1190 1096 901 950 725 240 93 74 28 50 135 321 447 572 736 802 916 941 1087 1165 1422 1696 1645 1948 2038 2190 2011 2006 2190 2326 2278 2382 2468 2549 2513 2767 2687 2702 2703 2822 2751 3112 3253 3092 3096 3485 3062 2902 2942 3074
0 0 0 0 0 0 0 0 0 14 36 318 274 34 0 0 138 6 157 144 248 308 194 240 226 320 402 448 799 911 546 203 1106 1308 1659 1504 1550 1381 1269 1117 869 411 76 29 37 59 118 304 509 510 615 717 849 992 1045 1151 1485 1520 1682 1942 1983 2090 1992 1823 1968 2177 2234 2357 2309 2587 2571 2638 2714 2835 2601 3059 3192 3274 3223 3424 3396 3717 3741 3264 3221 3370
0 0 0 0 0 0 0 0 3 6 4 162 100 6 5 192 77 114 123 181 261 116 335 273 299 316 208 238 727 1061 617 544 1170 1168 1282 1096 1318 1219 1289 1320 1178 762 160 23 38 70 205 277 394 474 568 645 708 831 944 1276 1412 1486 1727 1786 1972 2023 1948 1808 1807 1892 2037 2312 2327 2473 2416 2431 2606 2539 2428 2265 2559 2383 2883 3277 3283 3284 3096 3389 3586 3365
0 0 0 0 0 0 0 0 4 0 175 74 83 46 0 0 8 34 100 154 159 72 328 271 381 345 92 798 920 1015 768 877 1015 1000 1249 1145 1417 1264 1362 1404 1336 1005 509 77 73 185 270 323 431 471 477 502 622 673 850 1350 1276 1553 1706 1646 1824 1962 1924 1795 1707 1592 1717 1988 2071 2382 2482 2652 2448 2195 2098 2205 2422 2559 2844 3066 3181 3062 3284 3098 2867 3059
0 0 0 0 0 0 0 0 0 0 0 34 5 58 3 68 0 4 225 99 71 48 211 254 242 318 320 452 756 973 861 875 1041 962 980 1020 1228 1259 1304 1637 1658 1586 1334 413 52 92 117 246 397 493 516 622 772 782 885 1140 1097 1325 1481 1481 1487 1657 1678 1659 1524 1537 1622 1729 1688 1842 2098 2371 2597 2400 2301 2348 2576 2675 2514 2349 2670 2789 2844 2902 3132 3277
0 0 0 0 0 0 0 0 0 0 0 0 86 20 2 6 136 52 99 245 98 145 148 364 189 432 412 400 731 970 1041 1046 998 1011 878 948 1123 1297 1278 1520 1623 1744 1844 1151 619 285 181 163 224 425 460 718 771 780 790 772 978 1079 1321 1571 1518 1555 1618 1635 1591 1664 1669 1516 1484 1509 1951 2588 2811 2947 2750 2785 2694 2438 2452 2563 2561 2683 2648 2922 2830 2877
0 0 0 0 0 0 0 0 0 0 0 0 60 56 0 0 0 0 0 104 46 314 139 298 191 290 452 252 914 982 1117 1166 1059 962 875 1025 1108 1365 1424 1545 1822 1893 1906 1852 1221 692 452 498 303 244 497 696 890 784 607 602 1060 1065 1175 1371 1576 1569 1501 1532 1527 1684 1704 1531 1555 1705 1903 1944 2438 2490 2650 2615 2683 2674 2803 2853 2904 2668 2564 3015 2948 2913
0 0 0 0 0 0 0 0 0 0 0 1 13 47 0 0 0 5 22 2 95 67 104 76 42 476 204 257 558 905 1029 1152 1115 1084 1060 1192 943 1296 1256 1321 1222 1443 1863 1945 1657 1152 1038 1220 859 713 590 543 717 779 601 534 775 1192 1315 1490 1693 1575 1572 1567 1565 1766 1928 1924 1674 1544 1578 1594 1818 2141 2416 2391 2614 2598 2711 2741 2867 2960 3074 2766 2953 2973
0 0 0 0 0 0 0 0 0 0 0 0 6 61 0 0 28 21 4 4 134 134 93 202 157 663 139 332 482 686 866 944 1164 989 998 1057 1139 926 1007 1111 1200 1014 1603 1696 1674 1551 1500 1512 1349 1204 891 731 765 884 985 1082 1129 1367 1631 1698 1812 1798 1851 1996 1945 1574 1999 2011 2004 1914 1691 1685 1804 1869 1905 1789 1991 1755 1665 2183 2527 2886 2894 2579 2590 2988
55 0 1 0 0 0 0 0 0 0 0 0 0 0 0 0 0 5 22 272 271 308 184 194 83 470 208 602 580 768 938 891 952 935 1042 1051 1158 1200 1176 1126 1252 1110 1395 2143 2255 2075 1976 1636 1797 1763 1614 1497 1469 1367 1286 1310 1527 1738 1892 1865 1975 1787 1997 2041 2070 2080 2224 2047 1975 1840 1904 2023 1832 1549 1527 1499 1621 1580 1573 1494 2010 2589 2535 2509 2427 2701
23 0 0 0 0 0 0 0 0 0 0 0 0 0 0 0 0 32 230 382 288 413 370 120 74 462 337 505 593 666 711 843 764 844 874 852 1012 829 1000 1289 1509 1715 1606 1707 1649 1605 1611 1564 1704 1921 1951 2021 1814 1847 1825 1740 1756 1869 1949 2041 2058 2071 2174 1955 2198 2120 1986 2057 2198 2309 2138 1865 1853 1816 1765 1602 1575 1653 1615 1632 1601 2055 2203 2227 2246 2456
0 0 3 0 0 0 0 0 0 0 0 0 0 0 0 0 43 60 158 304 82 511 246 172 304 477 500 462 636 742 734 687 597 636 627 655 649 719 768 1113 1283 1481 1564 1472 1462 1471 1607 1556 1674 1737 1743 1866 1964 2044 2183 2056 1901 2001 2292 2063 2236 2422 2559 2372 2713 2577 2611 2570 2461 2708 2645 2465 2155 1936 1975 1858 1750 1720 1666 1638 1679 1758 2017 2039 2161 2421
40 0 0 2 13 0 0 0 0 0 0 0 0 0 0 30 62 298 763 340 15 478 319 402 723 667 335 529 660 745 786 630 558 598 619 590 551 573 591 715 872 1071 1242 1335 1279 1356 1351 1462 1514 1480 1429 1563 1813 1809 1831 2014 2295 2271 2251 2374 2438 2626 2601 3078 2808 2653 2518 2534 2562 2722 2746 2681 2215 2136 2039 2140 1957 1922 1913 1857 1777 1716 1668 1900 1972 2006
89 0 0 11 0 0 11 9 10 0 0 0 0 0 0 36 108 116 42 102 875 407 434 749 564 690 596 525 632 728 719 662 565 557 629 674 638 643 650 653 859 1043 1010 1044 1007 1051 1265 1258 1444 1448 1494 1547 1546 1515 1408 1403 1429 1482 1664 1738 1619 1834 1940 1621 2158 1871 2280 2095 2175 2196 2156 2007 2176 2461 2544 2295 2393 2240 2086 2063 2019 2050 1976 1964 1915 1801
25 2 7 0 8 5 6 18 18 12 5 3 5 4 8 9 78 99 324 162 464 55 0 864 786 935 822 562 656 701 687 715 665 674 693 639 613 651 762 768 866 1032 1122 1118 996 1005 1136 1084 1189 1206 1345 1337 1131 1182 1432 1259 1216 1364 1372 1378 1403 1536 1402 1249 1568 1317 1137 1487 1843 2149 2204 1874 1911 2408 2590 2244 2244 2109 2076 2025 1986 2063 2021 1996 1997 1810
88 10 20 5 17 20 20 18 25 24 19 8 4 4 54 39 44 227 268 150 334 635 213 780 997 1106 858 645 670 740 740 785 744 737 705 726 753 793 872 860 886 870 975 981 907 866 892 946 1011 1026 982 902 927 990 1080 1091 1070 896 755 738 762 849 943 1108 1204 1186 1029 943 923 1209 1439 1525 1544 1553 1546 1637 1576 1665 1836 1819 1930 1720 1786 2053 1907 1897
7 299 121 21 23 31 34 28 26 23 21 18 14 6 37 191 385 504 471 508 601 725 678 899 1052 1014 845 722 730 653 843 742 652 683 615 647 720 754 781 784 797 801 835 946 989 925 912 958 877 886 954 953 936 856 905 920 1012 1121 1089 999 1015 1067 961 1083 1210 1039 972 979 814 894 1131 1259 1367 1470 1650 1643 1525 1503 1537 1601 1647 1673 1559 1713 1771 1960
23 222 17 32 22 33 47 42 30 24 18 15 16 11 10 85 555 536 692 519 686 888 912 922 933 991 808 608 584 869 886 900 867 805 730 601 479 604 770 836 839 865 930 855 788 868 906 918 960 960 942 899 864 856 841 802 844 850 913 944 943 911 831 822 902 834 883 1031 1059 1092 1048 1054 1082 1120 1149 1246 1354 1366 1482 1679 1800 1783 1713 1558 1548 1810
19 150 396 41 32 35 40 57 47 32 25 21 23 22 24 230 412 276 336 456 632 929 885 839 1012 1093 884 631 720 881 858 910 891 779 728 627 525 450 736 840 738 881 785 626 524 591 715 823 857 860 885 913 871 847 786 805 836 796 731 690 622 600 622 576 638 637 624 773 931 1045 1055 1040 1064 1071 1098 1132 1162 1326 1493 1577 1647 1700 1713 1629 1460 1413
107 42 74 41 48 46 45 52 51 38 21 31 24 193 36 22 235 303 403 554 682 684 748 685 862 819 718 583 699 726 775 839 772 656 565 517 463 421 598 883 750 709 595 558 559 674 778 750 756 737 718 823 829 718 681 736 766 803 765 681 596 525 527 714 647 776 757 748 767 786 819 806 774 750 896 885 1024 1200 1362 1435 1453 1471 1465 1376 1251 1336
34 74 20 17 21 49 44 40 37 48 51 47 22 101 249 61 154 301 452 551 502 390 424 540 809 838 706 706 735 693 781 682 553 544 452 415 398 436 561 606 750 721 606 568 590 656 615 522 383 9 560 435 598 624 567 664 526 546 491 454 480 500 511 374 328 578 612 576 650 588 696 768 843 796 770 779 838 931 1039 1117 1141 1049 1059 1203 1164 1329
8 42 120 82 55 26 37 23 27 45 35 32 32 24 44 167 154 300 459 398 520 441 588 827 910 796 710 651 610 762 661 576 503 481 474 413 592 575 658 794 860 860 781 614 588 550 500 370 0 66 26 273 349 152 318 508 366 338 252 223 56 391 409 438 456 411 529 498 546 406 480 592 636 628 717 816 896 931 959 964 987 1000 976 923 903 1062
53 46 11 25 8 46 34 22 14 26 41 19 11 6 5 7 255 204 355 598 481 498 704 930 823 681 640 729 773 650 611 586 499 484 416 551 630 597 626 644 810 846 769 580 424 383 470 368 242 268 122 0 0 14 258 288 306 350 334 357 179 365 318 299 326 356 360 376 379 395 408 429 456 410 398 584 625 657 800 823 901 935 918 850 782 789
0 0 13 37 2 85 111 15 8 5 19 29 26 6 1 0 0 34 21 608 189 345 749 964 888 698 752 752 688 660 622 603 532 490 518 604 671 672 684 628 610 625 530 495 312 238 285 339 248 164 153 153 110 149 241 240 209 158 174 256 106 201 243 248 230 266 300 332 293 212 305 280 270 337 250 237 413 460 475 476 629 718 752 728 715 711
0 0 2 24 15 1 22 1 0 0 6 2 3 3 5 0 0 242 138 496 296 504 902 1010 851 793 855 794 742 670 676 588 568 535 475 491 519 554 574 567 486 373 487 440 368 278 255 234 198 152 129 158 86 0 107 236 246 236 237 225 230 237 188 193 194 208 235 249 270 281 306 177 307 312 268 329 302 274 341 351 315 347 433 496 591 624
1 0 2 1 44 70 69 45 1 108 12 0 0 0 1 0 0 226 181 241 261 440 931 1045 1004 939 929 877 776 707 638 624 565 542 467 460 433 339 241 193 207 181 125 10 129 65 0 42 163 20 4 6 0 0 0 182 190 108 177 212 211 192 174 147 151 153 153 190 224 242 260 273 294 145 3 206 236 246 226 161 208 148 205 239 255 268
0 0 0 0 7 21 8 9 0 2 58 0 0 0 0 23 142 406 54 171 36 377 728 1070 1094 962 932 879 805 723 642 606 506 390 357 369 358 202 153 56 0 0 5 0 122 61 99 55 87 0 0 11 0 35 37 60 132 164 118 170 171 153 140 116 12 0 0 0 136 172 182 178 186 213 228 235 258 245 234 217 184 157 70 143 128 133
9 0 0 0 0 0 0 0 0 6 0 0 0 0 7 6 69 58 14 0 0 232 676 955 1067 957 956 923 816 696 592 389 404 370 330 257 228 139 44 0 0 0 0 0 0 22 46 0 0 0 0 0 0 0 0 0 56 79 97 103 92 82 55 0 0 0 0 0 0 0 0 0 0 0 0 0 0 0 0 0 0 0 0 0 0 0
0 0 0 0 0 0 0 0 0 0 55 0 0 16 0 122 4 0 0 0 10 300 558 824 934 1034 1008 963 846 617 331 177 204 199 74 173 146 62 0 0 0 0 0 0 0 0 0 0 0 0 0 0 0 0 0 0 0 0 0 0 0 0 0 0 0 0 0 0 0 0 0 0 0 0 0 0 0 0 0 0 0 1 7 8 2 0
0 0 0 0 0 0 0 0 0 4 0 0 0 43 0 0 0 0 0 0 61 266 494 719 935 1032 1041 984 798 661 328 285 281 158 151 83 126 105 76 0 0 0 0 0 0 0 0 0 0 0 0 0 0 0 0 0 0 0 0 0 0 0 0 0 0 0 0 0 0 0 0 0 0 0 0 0 0 0 0 0 0 0 0 0 0 0
0 2 0 0 0 8 7 56 35 0 0 0 0 0 0 0 0 0 0 0 66 368 431 572 820 956 1024 1009 943 698 328 325 303 259 317 177 28 59 112 81 60 9 0 0 0 0 0 0 0 0 0 0 0 0 0 0 0 0 0 0 0 0 0 0 0 0 0 0 0 0 0 0 0 0 0 0 0 0 0 0 0 0 0 0 0 0
0 0 0 15 1 0 0 0 0 2 0 3 0 0 0 0 0 0 0 0 10 179 390 510 670 875 1013 1023 937 631 454 364 281 315 303 168 30 40 152 10 0 0 0 0 0 0 0 0 0 0 0 0 0 0 0 0 0 0 0 0 0 0 0 0 0 0 0 0 0 0 0 0 0 0 0 0 0 0 0 0 0 0 0 0 0 0
0 0 0 0 2 47 97 59 50 5 0 1 8 0 0 0 0 0 0 0 0 149 381 460 544 713 894 923 697 170 36 278 0 116 279 131 0 117 118 2 0 0 0 0 0 0 0 0 0 0 0 0 0 0 0 0 0 0 0 0 0 0 0 0 0 0 0 0 0 0 0 0 0 0 0 0 0 0 0 0 0 0 0 0 0 0
107 0 19 39 19 0 157 79 0 0 0 0 0 2 0 0 0 0 0 0 0 0 345 458 525 618 732 777 700 648 548 174 258 381 149 0 0 0 38 0 0 0 0 0 0 0 0 0 0 0 0 0 0 0 0 0 0 0 0 0 0 0 0 0 0 0 0 0 0 0 0 0 0 0 0 2 1 0 0 0 0 0 0 0 0 0
90 75 205 126 130 6 0 0 24 0 23 8 3 0 0 1 3 0 0 0 0 0 374 468 496 570 600 639 612 567 463 364 234 12 10 8 0 6 6 1 0 0 0 0 0 0 0 0 0 0 0 0 0 0 0 0 0 0 0 0 0 0 0 1 3 0 0 0 0 0 0 0 0 0 1 7 8 11 18 5 2 7 4 2 2 0
91 303 42 98 100 105 237 154 191 288 331 58 10 1 10 23 1 0 0 0 0 0 0 430 510 517 481 440 358 235 0 46 9 0 1 21 0 0 0 2 0 3 0 0 0 0 0 0 0 0 0 0 0 0 0 0 0 0 0 0 3 3 1 1 3 3 0 0 0 1 0 0 1 6 10 10 12 16 8 0 0 12 22 1 0 0
396 143 133 182 159 225 200 75 24 60 53 10 4 8 8 50 45 0 0 0 0 0 0 0 291 368 384 344 256 196 15 0 0 0 29 10 0 0 0 0 0 0 8 9 0 0 0 0 0 0 0 0 0 0 0 0 0 0 0 2 4 6 6 5 3 2 1 1 3 6 6 7 8 14 25 23 22 22 18 4 2 2 0 0 0 0
Wind_Speed
nan nan nan nan nan nan nan 15 15 nan 17 17 13 14 12 13 14 12 13 6 6 14 26 25 23 21 16 11 9 5 4 5 5 4 5 5 8 9 10 11 12 13 14 14 12 11 10 10 10 11 10 9 7 7 6 6 7 7 7 7 8 8 9 9 9 11 12 12 12 12 12 11 11 12 14 16 17 17 17 16 16 16 16 16 17 18
nan nan nan nan nan nan nan 20 nan 21 16 14 16 15 15 14 15 13 14 7 9 17 25 27 22 19 18 15 11 8 3 3 3 3 4 4 7 10 10 11 11 12 15 15 13 11 10 10 9 11 11 9 7 7 6 6 6 7 7 6 6 7 8 9 9 9 11 12 13 13 12 12 11 12 14 15 16 17 17 17 17 16 16 15 16 17
nan nan nan nan nan nan nan nan nan nan 18 17 17 18 17 17 18 17 19 11 8 13 18 26 24 20 19 16 16 11 5 5 6 5 6 5 6 10 10 10 11 12 13 13 13 11 10 9 8 10 10 9 8 6 6 6 6 6 7 7 5 6 6 8 8 9 10 11 13 14 13 13 12 13 14 14 15 16 16 16 16 16 15 15 15 16
nan nan nan nan nan nan nan nan nan nan nan nan nan nan 16 14 12 16 14 11 10 9 9 16 25 23 24 21 17 18 12 10 9 8 9 9 7 8 8 9 10 11 12 12 12 10 9 9 9 10 10 9 10 9 7 6 6 6 7 6 5 5 6 6 8 9 9 9 10 13 14 13 14 13 13 13 14 15 15 15 15 16 15 15 15 14
nan nan nan nan nan nan nan nan nan nan nan nan nan nan 18 11 11 14 14 13 13 12 6 12 20 20 20 21 19 21 21 15 14 11 11 11 10 9 9 10 12 11 12 13 12 12 11 10 9 8 9 10 9 9 7 6 6 7 4 5 4 5 5 6 6 8 9 8 8 10 10 11 12 12 13 14 14 14 14 14 14 15 15 15 15 14
nan nan nan nan nan nan nan nan nan nan nan nan 20 nan 15 11 15 19 16 15 13 11 9 8 10 11 nan 19 15 19 21 14 13 11 9 10 9 8 6 9 13 14 14 14 14 13 13 11 11 10 9 8 9 8 7 6 6 6 5 4 4 6 6 6 5 6 8 9 9 9 9 10 11 12 12 14 14 14 14 14 14 13 14 14 14 14
nan nan nan nan nan nan nan nan nan nan nan nan nan 18 18 14 17 17 13 13 14 12 10 7 10 12 17 19 21 20 15 11 14 13 10 10 10 8 7 9 11 12 13 13 13 13 12 11 11 10 9 8 8 8 9 7 6 5 5 4 3 5 5 6 6 5 9 9 10 9 10 10 10 11 12 13 14 14 15 15 13 13 13 13 14 13
nan nan nan nan nan nan nan nan nan nan nan nan nan nan 19 19 19 18 18 16 21 20 16 10 17 16 16 19 24 19 17 14 13 14 12 11 9 9 8 8 9 11 nan nan 11 11 11 10 10 9 8 8 8 8 9 8 7 4 4 3 3 5 5 5 6 6 8 9 9 10 11 11 11 10 10 10 12 13 13 14 14 13 13 12 13 12
nan nan nan nan nan nan nan nan nan nan nan nan nan 21 21 21 22 21 19 18 21 17 14 11 17 17 18 28 30 22 20 16 11 11 12 11 9 10 9 8 8 nan nan nan 12 11 11 10 9 9 8 8 8 9 8 8 8 6 5 4 4 5 5 5 4 6 7 9 9 10 11 11 12 11 10 9 10 10 11 11 12 13 12 11 11 11
nan nan nan nan nan nan nan nan nan nan nan 34 34 36 34 29 26 22 20 20 21 18 13 13 13 15 nan 23 26 18 14 12 10 8 11 12 11 11 nan nan nan nan nan nan nan 9 9 10 9 8 9 9 8 8 9 9 9 8 8 5 4 4 5 6 5 6 6 7 9 9 10 9 10 11 11 10 9 9 10 10 10 11 12 11 10 9
nan nan nan nan nan nan nan nan nan nan 35 33 38 40 39 37 34 33 29 25 24 17 18 16 12 12 nan 13 15 10 nan 13 18 16 14 15 15 12 11 nan nan nan nan nan nan 8 8 8 9 9 8 8 9 10 9 8 8 9 8 6 3 3 5 5 5 5 5 6 7 9 8 8 8 9 10 10 10 10 10 10 9 10 10 10 9 9
nan nan nan nan nan nan nan nan nan nan 31 31 35 37 38 36 33 33 31 28 21 20 nan 17 16 14 nan 16 9 8 18 11 16 15 9 12 13 13 12 nan nan nan nan nan nan 9 8 10 9 9 9 9 9 10 9 8 9 9 9 7 5 5 4 5 5 5 5 6 7 8 8 9 9 9 10 9 9 9 9 9 9 9 9 9 8 8
nan nan nan nan nan nan nan nan nan nan 29 nan 33 33 nan 35 32 32 31 nan 21 21 nan 21 21 nan nan nan 17 10 12 12 14 19 14 10 13 14 13 nan nan nan nan nan nan 11 10 8 7 7 9 11 10 9 7 7 7 8 8 7 6 5 5 6 6 5 5 6 6 7 7 9 10 9 9 9 9 9 9 9 8 8 7 7 7 7
nan nan nan nan nan nan nan nan nan nan nan nan nan nan nan 34 nan nan nan nan 24 nan nan 20 19 16 22 19 16 14 10 13 13 18 21 17 16 17 16 14 14 nan nan nan nan 10 10 9 8 8 9 9 10 9 9 8 8 9 9 8 6 6 7 8 7 6 6 5 6 6 7 8 10 10 9 9 9 8 9 9 8 7 6 6 5 5
nan nan nan nan nan nan nan nan nan nan nan nan 31 nan nan nan nan nan nan 20 18 22 24 24 22 20 14 21 nan 16 16 12 14 19 22 28 28 26 24 21 17 15 nan nan nan nan 10 10 9 10 10 10 10 9 9 10 9 10 9 9 8 9 9 9 7 8 6 7 6 7 8 8 10 10 10 10 9 9 8 9 8 7 7 6 5 5
nan nan nan nan nan nan nan nan nan nan nan 29 30 nan nan nan 31 nan 27 24 25 26 27 24 21 22 19 21 19 18 13 10 12 15 22 31 32 27 26 23 19 16 nan nan nan nan 10 11 11 12 11 11 11 10 10 9 10 9 9 10 8 9 10 9 8 8 8 7 7 7 7 8 9 11 11 12 10 9 9 8 7 6 6 6 6 5
nan nan nan nan nan nan nan nan nan nan nan 31 33 nan nan 36 nan 34 33 34 32 28 25 26 22 20 20 17 18 17 12 7 10 13 14 21 29 24 21 21 20 18 16 nan nan nan 13 14 14 14 12 12 12 10 9 9 9 8 10 10 10 10 11 9 8 8 9 9 8 7 7 8 9 10 10 10 8 8 8 8 7 7 6 6 5 5
nan nan nan nan nan nan nan nan nan nan 35 nan nan nan nan nan nan nan nan 32 30 nan 28 24 19 21 nan 21 19 16 12 8 10 12 10 12 22 22 22 23 21 19 18 nan nan 16 16 15 14 14 14 12 10 8 8 9 9 11 11 10 10 11 10 9 9 8 9 10 10 9 8 9 9 10 10 10 10 10 10 9 9 8 7 5 6 6
nan nan nan nan nan nan nan nan nan nan nan nan nan nan nan nan nan nan 31 nan nan nan 28 25 21 20 19 20 18 13 12 9 9 11 11 9 12 16 21 24 24 24 24 22 nan nan 19 18 16 16 15 14 13 12 11 11 11 11 11 11 9 8 8 8 9 10 11 10 12 11 10 9 10 11 11 12 12 12 11 10 9 8 8 8 8 8
nan nan nan nan nan nan nan nan nan nan nan nan nan nan nan nan 31 nan nan 30 nan 28 27 26 23 19 15 19 16 14 11 10 10 11 11 12 13 16 21 25 26 26 26 26 26 25 24 22 19 17 15 16 15 14 14 11 12 10 11 12 12 13 13 12 11 12 11 10 11 11 11 11 11 11 11 12 12 12 11 11 10 9 9 8 9 8
nan nan nan nan nan nan nan nan nan nan nan nan nan nan nan nan nan nan nan 31 nan 29 26 26 22 17 19 22 19 16 13 11 10 11 12 12 14 18 24 29 31 31 30 29 28 26 25 25 23 20 19 18 19 18 16 13 12 12 12 13 13 13 12 12 12 13 13 13 12 12 11 11 12 11 12 11 12 11 12 12 11 11 11 12 10 10
nan nan nan nan nan nan nan nan nan nan nan nan nan nan nan nan nan nan nan nan nan nan 29 nan nan 22 22 20 22 18 15 11 10 12 13 13 14 19 24 32 37 38 34 29 27 26 25 24 23 22 22 21 20 17 14 14 14 14 14 16 16 15 14 14 14 14 16 16 16 13 13 12 13 13 13 12 13 12 12 13 12 12 12 11 10 10
nan nan nan nan nan nan nan nan nan nan nan nan nan nan nan nan nan nan nan nan 31 33 nan 31 27 23 23 20 19 17 17 14 14 15 13 14 17 17 21 31 38 40 35 30 28 27 27 26 25 24 22 21 19 16 15 16 16 16 16 17 17 16 14 15 15 16 17 18 18 16 15 15 14 15 14 13 14 12 12 13 13 14 14 12 12 11
nan nan nan nan nan nan nan nan nan nan nan nan nan nan nan nan nan nan nan 31 27 31 26 27 nan 26 22 21 17 18 19 20 18 15 15 17 19 19 19 20 28 35 34 31 32 32 29 28 27 26 25 23 21 18 16 17 18 18 19 18 18 16 16 17 17 18 19 18 17 17 17 17 17 16 15 15 16 15 14 15 15 16 15 14 13 13
nan nan nan nan nan nan nan nan nan nan nan nan nan nan nan nan nan nan 40 35 27 29 30 25 nan 26 23 21 19 18 19 19 19 18 18 20 20 18 17 15 19 27 33 36 35 32 30 29 28 27 26 23 21 20 18 18 18 19 19 20 20 20 19 19 20 19 19 19 18 19 18 18 18 18 17 17 18 17 16 16 16 16 15 15 15 14
nan nan nan nan nan nan nan nan nan nan nan nan nan nan nan nan nan nan 35 35 nan 34 32 28 28 31 28 21 18 15 16 18 20 21 20 23 23 19 18 17 15 19 26 32 36 36 31 29 29 28 25 23 22 21 20 19 19 21 23 23 23 22 23 23 23 23 23 22 21 20 19 18 18 17 16 16 17 17 17 16 16 16 16 15 15 15
nan nan nan nan nan nan nan nan nan nan nan nan nan nan nan nan nan 40 41 35 nan 34 28 31 31 28 24 20 18 15 15 18 20 21 22 24 23 21 20 20 19 20 19 21 27 34 35 30 29 28 26 26 28 29 29 28 27 27 25 24 26 27 26 27 26 23 23 23 21 21 19 18 17 17 17 18 19 19 19 18 17 17 16 17 15 14
nan nan nan nan nan nan nan nan nan nan nan nan nan nan nan nan 35 34 nan 33 42 37 28 32 28 26 21 21 19 17 17 19 19 21 23 24 24 22 21 21 22 22 22 22 23 24 26 27 31 32 30 29 30 30 29 28 27 25 25 26 26 28 29 26 26 25 25 22 21 19 19 17 17 19 21 22 24 23 22 22 22 21 21 20 18 16
nan nan nan nan nan nan nan nan nan nan nan nan nan nan nan nan nan nan 37 40 35 nan nan 29 26 22 24 22 22 21 22 21 21 21 22 23 24 24 23 21 21 23 25 26 22 21 21 23 26 32 33 33 34 34 33 32 31 31 32 33 33 34 32 27 25 26 26 26 23 20 19 19 21 22 24 25 26 26 26 25 24 25 25 23 21 21
nan nan nan nan nan nan nan nan nan nan nan nan nan nan nan nan nan 36 38 36 39 39 35 29 25 24 27 25 25 26 26 26 25 25 25 24 22 22 21 21 22 23 24 25 24 25 23 21 21 28 33 36 37 36 35 35 35 35 35 36 36 35 32 27 24 27 31 31 27 23 21 22 24 23 23 26 27 26 26 26 25 25 26 27 26 24
nan 29 28 nan nan nan nan nan nan nan nan nan nan nan nan 39 37 38 36 36 38 41 37 35 31 29 28 27 27 29 28 28 27 25 26 28 26 23 22 21 22 24 25 25 25 25 26 28 29 30 33 34 37 39 40 40 40 39 39 38 37 34 30 26 26 30 30 26 21 19 21 25 25 24 24 26 27 26 26 26 27 27 27 27 27 28
nan 30 nan nan nan nan nan nan nan nan nan nan nan nan nan nan 36 36 35 36 33 36 37 38 32 27 28 26 27 28 27 27 26 24 26 28 29 28 26 26 27 26 26 26 27 27 27 29 33 36 37 37 39 41 42 44 45 45 43 40 39 37 32 28 29 31 32 29 24 19 19 22 25 25 25 26 26 26 27 29 28 28 27 26 26 27
nan 34 32 nan nan nan nan nan nan nan nan nan nan nan nan 33 33 34 36 37 35 39 38 32 31 34 31 28 27 26 24 25 25 24 24 26 28 29 29 29 31 31 30 29 29 30 31 31 32 35 38 38 39 40 42 45 49 48 42 40 39 40 39 36 34 34 33 31 28 24 19 20 21 20 21 23 24 27 29 31 31 28 28 28 29 28
35 nan nan nan nan nan nan nan nan nan nan nan nan 38 nan nan 38 36 37 36 39 36 37 38 37 38 33 29 26 27 26 26 25 25 25 27 29 29 28 30 33 34 34 34 33 33 34 35 35 35 36 37 36 38 38 40 44 45 42 41 41 41 40 38 34 32 31 31 30 30 28 26 25 25 25 25 26 26 28 32 35 36 36 34 33 31
nan nan nan nan nan nan nan nan nan nan nan nan nan 40 39 nan 34 34 36 36 36 35 33 32 35 36 33 31 31 31 31 30 29 30 31 32 31 30 29 31 32 32 34 34 33 33 35 36 37 nan 39 39 37 38 40 41 42 43 41 39 40 39 39 35 33 30 31 32 32 30 29 27 26 27 28 28 28 28 28 30 35 40 42 41 39 37
nan nan 34 nan nan nan nan nan nan nan nan nan nan nan nan 33 39 32 33 32 32 32 30 32 32 34 35 36 35 35 35 38 41 39 35 33 32 30 31 30 31 31 31 32 34 35 38 38 nan nan nan 35 36 37 40 41 39 41 40 37 nan 35 37 36 34 31 31 33 33 31 29 28 26 26 26 25 25 26 27 28 30 35 39 42 41 40
nan nan nan nan nan nan nan nan nan nan nan nan nan nan nan nan 39 37 34 32 32 31 29 33 32 33 34 34 35 37 38 41 42 40 38 37 36 33 34 34 33 33 34 34 36 38 37 37 38 39 40 nan nan nan 33 34 36 38 39 38 34 35 36 36 35 34 33 32 31 31 30 29 29 28 26 24 24 25 25 25 24 26 29 35 39 41
nan nan nan nan nan nan 33 nan nan nan nan nan nan nan nan nan nan nan nan 31 33 30 28 33 32 33 32 33 34 34 36 37 37 36 36 37 38 40 40 40 38 37 37 38 38 39 38 37 39 42 42 42 41 38 35 36 37 38 39 38 37 38 36 36 36 34 33 32 32 32 32 30 31 31 29 27 26 27 26 25 23 24 25 29 33 37
nan nan nan nan nan nan nan nan nan nan nan nan nan nan nan nan nan 37 32 34 37 33 29 31 32 30 31 32 32 32 30 30 31 32 33 36 37 39 42 42 42 41 40 40 40 41 41 40 42 44 45 45 nan nan 44 42 41 41 40 39 39 38 37 36 36 35 35 35 35 35 34 32 32 32 32 31 29 28 29 31 32 29 25 23 24 27
nan nan nan nan nan nan nan nan nan 31 nan nan nan nan nan nan nan 38 34 37 38 33 28 28 29 29 30 30 31 27 26 27 27 27 32 35 37 39 40 42 43 43 42 nan 44 nan nan nan 46 nan nan nan nan nan nan 43 42 40 38 37 37 39 38 37 36 35 35 35 35 35 35 34 34 34 nan 33 31 30 28 27 29 29 27 26 25 24
nan nan nan nan nan nan nan nan nan nan nan nan nan nan nan nan 33 36 nan 39 nan 33 28 26 27 29 31 31 28 27 29 32 33 34 35 36 37 39 40 nan nan nan nan nan 43 nan nan nan nan nan nan nan nan nan nan nan 41 39 38 39 40 41 39 37 nan nan nan nan 37 37 35 35 34 35 34 32 32 32 31 29 30 30 nan 31 31 28
nan nan nan nan nan nan nan nan nan nan nan nan nan nan nan nan nan nan nan nan nan 33 30 28 29 30 31 31 31 35 38 40 39 37 35 36 38 40 nan nan nan nan nan nan nan nan nan nan nan nan nan nan nan nan nan nan nan nan nan 40 nan nan nan nan nan nan nan nan nan nan nan nan nan nan nan nan nan nan nan nan nan nan nan nan nan nan
nan nan nan nan nan nan nan nan nan nan nan nan nan nan nan 36 nan nan nan nan nan 37 35 32 31 31 33 38 41 42 42 41 41 38 nan 38 39 nan nan nan nan nan nan nan nan nan nan nan nan nan nan nan nan nan nan nan nan nan nan nan nan nan nan nan nan nan nan nan nan nan nan nan nan nan nan nan nan nan nan nan nan nan nan nan nan nan
nan nan nan nan nan nan nan nan nan nan nan nan nan nan nan nan nan nan nan nan nan 41 38 36 37 35 35 37 37 39 38 37 36 38 38 nan 39 42 nan nan nan nan nan nan nan nan nan nan nan nan nan nan nan nan nan nan nan nan nan nan nan nan nan nan nan nan nan nan nan nan nan nan nan nan nan nan nan nan nan nan nan nan nan nan nan nan
nan nan nan nan nan nan nan nan nan nan nan nan nan nan nan nan nan nan nan nan nan 40 40 37 37 36 35 36 36 39 37 34 35 35 38 39 nan nan 42 nan nan nan nan nan nan nan nan nan nan nan nan nan nan nan nan nan nan nan nan nan nan nan nan nan nan nan nan nan nan nan nan nan nan nan nan nan nan nan nan nan nan nan nan nan nan nan
nan nan nan nan nan nan nan nan nan nan nan nan nan nan nan nan nan nan nan nan nan 42 40 37 36 35 36 35 37 38 38 37 39 38 39 40 nan nan 39 nan nan nan nan nan nan nan nan nan nan nan nan nan nan nan nan nan nan nan nan nan nan nan nan nan nan nan nan nan nan nan nan nan nan nan nan nan nan nan nan nan nan nan nan nan nan nan
nan nan nan nan nan nan nan nan nan nan nan nan nan nan nan nan nan nan nan nan nan 41 44 45 41 39 39 44 41 38 nan 38 nan 40 43 43 nan 43 44 nan nan nan nan nan nan nan nan nan nan nan nan nan nan nan nan nan nan nan nan nan nan nan nan nan nan nan nan nan nan nan nan nan nan nan nan nan nan nan nan nan nan nan nan nan nan nan
16 nan nan nan nan nan 22 nan nan nan nan nan nan nan nan nan nan nan nan nan nan nan 46 49 49 48 47 50 50 46 45 45 45 45 45 nan nan nan nan nan nan nan nan nan nan nan nan nan nan nan nan nan nan nan nan nan nan nan nan nan nan nan nan nan nan nan nan nan nan nan nan nan nan nan nan nan nan nan nan nan nan nan nan nan nan nan
nan nan 16 17 18 nan nan nan nan nan nan nan nan nan nan nan nan nan nan nan nan nan 43 49 51 50 50 50 50 52 53 47 46 nan nan nan nan nan nan nan nan nan nan nan nan nan nan nan nan nan nan nan nan nan nan nan nan nan nan nan nan nan nan nan nan nan nan nan nan nan nan nan nan nan nan nan nan nan nan nan nan nan nan nan nan nan
nan 19 nan nan nan 21 22 22 21 19 23 nan nan nan nan nan nan nan nan nan nan nan nan 41 45 47 47 47 45 46 nan nan nan nan nan nan nan nan nan nan nan nan nan nan nan nan nan nan nan nan nan nan nan nan nan nan nan nan nan nan nan nan nan nan nan nan nan nan nan nan nan nan nan nan nan nan nan nan nan nan nan nan nan nan nan nan
20 19 18 21 22 24 25 nan nan nan nan nan nan nan nan nan nan nan nan nan nan nan nan nan 40 41 44 47 49 50 nan nan nan nan nan nan nan nan nan nan nan nan nan nan nan nan nan nan nan nan nan nan nan nan nan nan nan nan nan nan nan nan nan nan nan nan nan nan nan nan nan nan nan nan nan nan nan nan nan nan nan nan nan nan nan nan
Wind_Direction
nan nan nan nan nan nan nan 225 207 nan 197 216 217 218 211 222 218 220 234 215 164 212 203 197 199 204 207 207 201 204 203 179 178 180 185 180 172 169 172 168 164 161 154 169 171 166 164 160 160 163 167 160 152 149 146 136 133 130 124 118 108 111 112 113 112 111 111 110 111 112 106 114 113 113 116 122 130 134 139 144 143 143 140 139 141 145
nan nan nan nan nan nan nan 221 nan 210 209 224 215 213 217 213 222 214 224 236 191 186 198 197 204 205 207 202 201 208 195 119 111 149 157 179 188 180 176 172 166 161 164 170 174 171 172 167 162 168 168 163 155 148 141 135 137 139 128 123 125 119 114 116 116 118 115 115 117 120 119 118 118 117 118 125 129 134 141 143 144 142 144 143 144 146
nan nan nan nan nan nan nan nan nan nan 215 218 209 211 215 218 223 222 229 228 209 186 196 200 202 207 210 204 201 192 171 148 143 155 153 166 200 192 183 174 165 163 165 165 167 178 177 175 172 168 166 158 148 147 136 136 141 145 144 145 145 138 121 121 126 128 125 121 124 124 129 122 127 125 128 131 133 137 139 142 143 143 147 145 145 146
nan nan nan nan nan nan nan nan nan nan nan nan nan nan 207 222 215 210 219 223 217 192 211 201 202 202 205 202 203 189 172 169 164 167 163 162 195 205 191 176 163 160 169 163 170 180 184 186 180 170 168 166 165 164 155 141 131 149 155 155 163 158 144 147 137 138 141 135 134 131 130 128 131 128 130 135 135 136 140 142 143 144 144 143 143 146
nan nan nan nan nan nan nan nan nan nan nan nan nan nan 210 228 210 216 222 231 228 200 213 220 194 209 206 207 201 193 186 187 190 186 172 163 173 200 192 170 168 168 171 168 171 182 193 192 181 173 172 177 175 166 158 141 130 145 140 161 177 172 154 161 160 153 158 152 141 140 139 134 135 137 133 133 134 133 138 142 142 142 141 142 144 148
nan nan nan nan nan nan nan nan nan nan nan nan 209 nan 206 226 232 235 251 242 225 210 201 252 203 214 nan 209 207 204 192 187 190 186 175 166 164 192 189 175 178 174 176 174 173 184 192 185 184 185 182 178 178 165 159 157 140 141 153 169 182 182 166 164 164 168 162 153 149 146 146 140 135 135 130 127 130 133 134 137 144 144 141 141 144 147
nan nan nan nan nan nan nan nan nan nan nan nan nan 215 220 233 234 246 249 223 218 204 222 222 195 221 244 212 198 199 194 187 197 184 184 180 166 167 179 192 189 179 182 176 176 186 185 180 186 188 181 173 173 171 174 180 171 149 159 171 170 174 171 170 171 175 168 165 157 146 142 142 138 139 139 138 139 139 141 145 144 147 146 143 142 145
nan nan nan nan nan nan nan nan nan nan nan nan nan nan 228 236 237 233 229 205 208 212 228 242 209 216 238 202 194 201 192 187 191 188 190 190 169 149 170 197 200 185 nan nan 184 188 179 182 183 180 178 172 170 185 184 184 192 182 170 166 155 163 170 170 174 171 166 170 166 157 150 148 143 141 148 144 145 146 149 147 146 152 151 150 146 149
nan nan nan nan nan nan nan nan nan nan nan nan nan 226 233 234 234 234 225 216 213 206 218 229 225 218 221 200 197 198 192 185 176 185 189 194 182 156 164 189 203 nan nan nan 192 189 182 179 176 181 179 173 182 194 190 181 191 202 196 182 164 149 159 171 171 170 162 169 172 166 161 156 152 155 166 162 158 155 155 152 158 156 159 159 154 152
nan nan nan nan nan nan nan nan nan nan nan 208 221 226 226 225 224 226 221 222 216 214 221 247 235 228 nan 208 196 194 191 185 181 179 187 192 196 179 nan nan nan nan nan nan nan 191 184 175 173 172 184 191 188 195 199 192 191 202 209 202 177 144 157 174 171 167 166 166 176 173 170 160 163 167 176 174 175 169 170 167 171 165 166 167 166 161
nan nan nan nan nan nan nan nan nan nan 212 226 229 231 229 225 222 221 217 218 220 211 210 253 262 227 nan 224 199 201 nan 211 196 199 193 195 201 194 183 nan nan nan nan nan nan 189 191 179 172 186 187 188 196 201 214 206 193 193 205 213 188 148 174 185 178 172 165 166 172 174 175 168 174 175 180 182 185 184 181 176 181 179 174 170 170 170
nan nan nan nan nan nan nan nan nan nan 230 224 217 228 231 227 224 224 221 214 216 218 nan 242 272 248 nan 236 214 191 220 232 211 200 199 204 206 206 199 nan nan nan nan nan nan 188 196 204 189 185 190 198 200 208 217 211 204 190 194 209 206 187 195 198 191 186 173 171 172 170 177 175 180 186 182 176 178 183 184 181 183 184 181 174 170 166
nan nan nan nan nan nan nan nan nan nan 220 nan 221 226 nan 223 223 224 224 nan 219 219 nan 232 258 nan nan nan 230 233 228 245 218 199 196 203 206 210 206 nan nan nan nan nan nan 203 200 199 199 192 198 203 202 202 213 217 212 195 188 204 212 199 207 210 205 200 198 193 183 174 177 180 186 184 180 176 172 177 180 183 183 186 178 176 168 162
nan nan nan nan nan nan nan nan nan nan nan nan nan nan nan 225 nan nan nan nan 214 nan nan 234 251 228 232 239 244 233 234 252 243 207 194 195 206 212 208 209 212 nan nan nan nan 212 198 193 188 192 203 201 193 195 204 211 210 199 190 197 202 206 217 217 208 204 209 205 196 185 180 186 194 188 182 181 169 170 176 183 179 177 177 176 161 161
nan nan nan nan nan nan nan nan nan nan nan nan 216 nan nan nan nan nan nan 227 225 231 231 241 242 226 239 240 nan 215 215 227 255 236 214 202 206 208 205 205 210 213 nan nan nan nan 202 195 191 197 203 200 196 196 198 203 204 204 198 199 196 207 220 222 211 202 208 206 202 195 182 189 196 192 191 186 179 176 177 178 177 177 179 175 174 166
nan nan nan nan nan nan nan nan nan nan nan 215 213 nan nan nan 226 nan 225 222 230 235 231 232 221 221 220 222 215 214 213 215 259 268 242 220 211 212 208 205 202 204 nan nan nan nan 207 204 199 196 200 202 205 207 199 198 201 199 198 202 199 205 219 224 216 203 205 205 204 202 193 191 198 198 194 196 193 187 181 183 178 186 188 184 191 190
nan nan nan nan nan nan nan nan nan nan nan 222 216 nan nan 221 nan 227 227 226 232 230 231 227 214 220 216 219 218 218 226 241 273 292 279 232 216 217 217 213 208 203 205 nan nan nan 212 210 202 198 202 206 210 211 206 203 201 201 206 207 206 205 212 219 216 206 204 204 204 202 198 198 202 200 196 193 193 191 196 188 185 191 195 210 209 211
nan nan nan nan nan nan nan nan nan nan 222 nan nan nan nan nan nan nan nan 229 227 nan 233 231 220 219 nan 221 224 236 244 270 287 302 284 237 218 224 225 224 219 207 201 nan nan 209 214 213 209 202 199 203 209 213 212 211 207 204 205 211 215 213 215 216 213 208 205 202 197 199 198 201 202 201 195 195 202 208 207 201 198 202 215 215 225 228
nan nan nan nan nan nan nan nan nan nan nan nan nan nan nan nan nan nan 226 nan nan nan 230 229 219 215 226 222 232 244 251 276 291 294 292 267 245 243 236 232 228 218 208 205 nan nan 209 209 207 204 202 201 203 206 206 213 215 210 207 209 212 213 218 228 222 218 213 209 201 199 199 206 208 205 201 202 206 212 210 202 205 203 212 224 236 241
nan nan nan nan nan nan nan nan nan nan nan nan nan nan nan nan 226 nan nan 228 nan 234 230 232 225 222 239 226 247 248 261 280 290 292 294 284 260 250 241 235 234 226 214 208 209 208 207 207 206 206 204 203 204 204 207 213 214 214 213 216 212 211 213 219 224 226 224 218 210 209 211 213 216 215 211 212 214 213 213 211 208 205 215 224 234 239
nan nan nan nan nan nan nan nan nan nan nan nan nan nan nan nan nan nan nan 227 nan 238 233 229 224 224 231 225 233 252 261 277 288 285 280 273 256 244 235 231 231 230 222 214 212 212 212 210 208 210 210 208 208 203 200 205 214 215 216 219 221 222 221 220 219 221 221 221 218 218 219 220 221 222 218 218 223 218 219 219 214 212 210 225 231 240
nan nan nan nan nan nan nan nan nan nan nan nan nan nan nan nan nan nan nan nan nan nan 234 nan nan 225 231 232 225 235 246 257 269 280 273 263 255 244 235 228 224 220 218 217 214 214 216 217 214 213 215 215 217 212 203 202 212 218 218 220 222 219 218 221 222 223 223 221 219 218 218 218 225 227 225 225 227 220 222 223 224 223 224 223 232 242
nan nan nan nan nan nan nan nan nan nan nan nan nan nan nan nan nan nan nan nan 234 234 nan 228 222 224 225 230 232 238 244 244 252 260 270 266 254 243 236 236 225 216 209 209 213 214 214 215 215 216 219 221 222 219 215 213 214 219 222 224 223 223 223 225 224 225 228 228 224 220 216 218 223 227 228 225 224 220 216 223 224 228 228 226 230 241
nan nan nan nan nan nan nan nan nan nan nan nan nan nan nan nan nan nan nan 239 238 241 238 236 nan 224 229 231 238 245 245 242 245 252 260 265 263 248 238 242 233 219 208 207 210 213 215 217 217 218 221 223 221 220 220 216 215 218 220 220 221 221 222 224 225 227 230 230 229 225 221 219 218 222 225 224 223 220 217 218 224 231 231 229 227 233
nan nan nan nan nan nan nan nan nan nan nan nan nan nan nan nan nan nan 232 229 231 237 226 236 nan 225 229 231 239 253 256 255 252 247 250 254 257 259 254 250 235 218 212 214 217 216 215 217 219 218 220 223 224 222 222 221 218 218 217 216 217 217 219 220 223 225 227 228 229 229 225 220 221 222 224 224 225 225 223 220 222 230 232 232 230 230
nan nan nan nan nan nan nan nan nan nan nan nan nan nan nan nan nan nan 235 234 nan 233 230 228 227 224 231 233 247 255 262 260 253 249 247 247 249 256 254 249 240 224 224 228 225 220 219 219 221 222 221 220 223 225 226 225 222 221 221 217 213 216 216 216 222 225 228 227 226 227 228 224 224 226 229 232 233 235 233 229 228 230 235 235 233 234
nan nan nan nan nan nan nan nan nan nan nan nan nan nan nan nan nan 220 229 236 nan 238 236 233 228 239 236 240 250 256 262 266 262 257 254 251 249 246 247 247 243 236 239 240 227 218 219 224 226 225 221 220 222 221 219 220 220 222 225 222 220 219 219 221 224 226 229 229 227 228 228 227 226 228 231 236 237 236 237 235 232 232 232 237 237 237
nan nan nan nan nan nan nan nan nan nan nan nan nan nan nan nan 220 228 nan 232 239 240 231 236 239 244 241 247 247 254 260 262 265 264 259 256 256 254 253 252 250 249 249 242 229 228 233 236 232 227 224 225 227 228 227 225 224 224 226 225 223 223 223 223 228 233 235 236 232 229 231 230 231 232 233 234 238 238 237 235 235 235 234 233 235 236
nan nan nan nan nan nan nan nan nan nan nan nan nan nan nan nan nan nan 228 234 247 nan nan 246 251 241 242 251 251 250 253 258 265 269 264 260 259 259 261 260 257 257 254 248 238 235 245 251 239 229 226 229 233 234 233 232 229 224 223 224 225 226 228 230 230 233 236 238 236 232 232 237 239 240 241 240 240 242 242 241 241 242 242 240 236 235
nan nan nan nan nan nan nan nan nan nan nan nan nan nan nan nan nan 221 229 233 233 232 228 247 255 240 240 251 253 250 249 254 259 262 264 262 261 261 263 264 263 262 261 260 252 241 241 250 248 235 229 229 235 236 235 233 230 228 227 228 231 234 234 233 230 231 234 238 239 237 236 237 236 236 241 241 241 242 244 245 243 242 243 244 243 240
nan 214 208 nan nan nan nan nan nan nan nan nan nan nan nan 221 228 227 233 236 237 235 239 250 250 240 237 247 255 250 250 254 259 264 266 266 266 263 262 263 263 263 264 266 263 253 245 243 241 238 236 235 236 237 237 233 230 229 228 229 233 236 235 235 234 236 243 246 247 246 245 244 242 238 235 238 241 242 242 242 242 242 242 243 244 244
nan 220 nan nan nan nan nan nan nan nan nan nan nan nan nan nan 230 233 235 235 235 245 251 252 247 243 249 257 259 253 258 258 263 265 264 265 269 269 268 263 261 264 267 270 269 264 258 251 243 239 241 241 240 239 239 236 231 228 227 230 236 237 238 238 240 241 245 247 247 249 252 254 254 247 241 244 247 247 246 243 241 241 242 244 245 244
nan 217 216 nan nan nan nan nan nan nan nan nan nan nan nan 216 227 230 233 240 239 257 257 254 242 238 256 262 266 262 262 260 262 264 264 263 265 269 268 264 262 264 268 269 270 269 265 261 255 248 243 241 239 239 238 236 231 226 224 228 232 236 237 242 242 239 241 244 243 243 249 253 254 252 250 251 252 252 251 247 242 239 240 244 245 245
218 nan nan nan nan nan nan nan nan nan nan nan nan 215 nan nan 223 224 235 237 249 243 240 237 240 251 260 262 267 263 261 258 256 256 254 257 260 264 266 264 260 262 265 265 263 265 263 260 256 248 242 238 237 239 239 235 232 228 227 227 228 230 235 239 239 237 236 237 238 238 242 245 248 248 251 254 256 255 254 251 247 243 242 242 245 247
nan nan nan nan nan nan nan nan nan nan nan nan nan 223 225 nan 228 229 237 243 243 239 241 245 252 258 259 260 260 255 253 253 251 252 249 249 252 255 260 259 257 262 262 260 259 258 257 257 258 nan 251 246 239 235 237 236 234 232 229 229 234 235 236 234 234 231 231 229 229 231 237 241 245 246 246 249 254 255 254 251 247 246 244 243 244 246
nan nan 235 nan nan nan nan nan nan nan nan nan nan nan nan 231 226 230 238 238 236 235 241 248 256 260 262 260 258 257 255 252 247 243 247 248 248 254 257 257 261 259 258 257 257 257 258 255 nan nan nan 245 245 240 235 235 232 231 227 226 nan 232 235 235 235 235 237 236 235 236 238 239 239 242 248 251 253 255 256 255 252 249 246 245 242 242
nan nan nan nan nan nan nan nan nan nan nan nan nan nan nan nan 221 224 227 236 236 237 244 254 260 266 269 267 264 259 258 254 250 244 241 244 242 243 251 256 258 259 261 259 258 256 253 254 253 252 250 nan nan nan 230 227 230 232 231 231 231 237 239 240 240 239 240 241 239 239 239 242 246 247 247 246 246 249 248 251 254 254 250 246 242 240
nan nan nan nan nan nan 241 nan nan nan nan nan nan nan nan nan nan nan nan 231 238 238 247 262 269 273 274 271 270 270 266 257 249 247 245 248 247 246 245 250 252 253 252 252 254 256 255 251 250 248 249 248 242 240 240 239 237 238 239 240 240 241 241 241 241 239 238 239 239 236 238 240 241 239 242 247 250 250 251 251 251 254 251 246 242 240
nan nan nan nan nan nan nan nan nan nan nan nan nan nan nan nan nan 231 227 230 232 232 250 263 267 273 274 277 277 276 269 262 255 253 252 254 253 251 249 247 249 250 250 250 252 256 256 252 249 248 248 247 nan nan 243 245 244 243 243 241 241 241 242 242 240 238 237 236 235 236 237 241 245 245 248 251 251 253 257 255 255 255 253 250 246 243
nan nan nan nan nan nan nan nan nan 234 nan nan nan nan nan nan nan 233 223 227 227 227 243 256 266 271 270 273 276 273 268 266 269 265 259 256 252 248 249 250 249 248 248 nan 249 nan nan nan 250 nan nan nan nan nan nan 242 244 244 243 241 242 242 243 243 243 241 241 240 239 238 239 241 244 246 nan 249 249 250 252 253 254 255 256 256 254 250
nan nan nan nan nan nan nan nan nan nan nan nan nan nan nan nan 241 231 nan 217 nan 219 234 247 260 264 265 270 269 269 243 244 257 261 259 256 253 251 249 nan nan nan nan nan 249 nan nan nan nan nan nan nan nan nan nan nan 240 239 239 240 242 243 243 244 nan nan nan nan 243 242 242 243 243 247 248 248 249 249 248 248 249 247 nan 251 253 253
nan nan nan nan nan nan nan nan nan nan nan nan nan nan nan nan nan nan nan nan nan 217 228 242 254 255 254 257 249 243 243 249 251 251 255 257 255 251 nan nan nan nan nan nan nan nan nan nan nan nan nan nan nan nan nan nan nan nan nan 242 nan nan nan nan nan nan nan nan nan nan nan nan nan nan nan nan nan nan nan nan nan nan nan nan nan nan
nan nan nan nan nan nan nan nan nan nan nan nan nan nan nan 241 nan nan nan nan nan 225 228 238 245 250 251 247 245 245 243 248 253 253 nan 251 254 nan nan nan nan nan nan nan nan nan nan nan nan nan nan nan nan nan nan nan nan nan nan nan nan nan nan nan nan nan nan nan nan nan nan nan nan nan nan nan nan nan nan nan nan nan nan nan nan nan
nan nan nan nan nan nan nan nan nan nan nan nan nan nan nan nan nan nan nan nan nan 230 228 235 233 238 245 249 252 253 257 256 250 252 254 nan 256 255 nan nan nan nan nan nan nan nan nan nan nan nan nan nan nan nan nan nan nan nan nan nan nan nan nan nan nan nan nan nan nan nan nan nan nan nan nan nan nan nan nan nan nan nan nan nan nan nan
nan nan nan nan nan nan nan nan nan nan nan nan nan nan nan nan nan nan nan nan nan 229 228 230 236 234 241 247 250 257 258 261 264 263 258 252 nan nan 255 nan nan nan nan nan nan nan nan nan nan nan nan nan nan nan nan nan nan nan nan nan nan nan nan nan nan nan nan nan nan nan nan nan nan nan nan nan nan nan nan nan nan nan nan nan nan nan
nan nan nan nan nan nan nan nan nan nan nan nan nan nan nan nan nan nan nan nan nan 229 227 228 235 238 239 240 246 249 256 262 265 268 268 268 nan nan 263 nan nan nan nan nan nan nan nan nan nan nan nan nan nan nan nan nan nan nan nan nan nan nan nan nan nan nan nan nan nan nan nan nan nan nan nan nan nan nan nan nan nan nan nan nan nan nan
nan nan nan nan nan nan nan nan nan nan nan nan nan nan nan nan nan nan nan nan nan 228 232 231 232 236 237 234 239 238 nan 241 nan 259 264 265 nan 265 266 nan nan nan nan nan nan nan nan nan nan nan nan nan nan nan nan nan nan nan nan nan nan nan nan nan nan nan nan nan nan nan nan nan nan nan nan nan nan nan nan nan nan nan nan nan nan nan
262 nan nan nan nan nan 245 nan nan nan nan nan nan nan nan nan nan nan nan nan nan nan 232 235 233 234 233 232 229 235 238 239 240 241 250 nan nan nan nan nan nan nan nan nan nan nan nan nan nan nan nan nan nan nan nan nan nan nan nan nan nan nan nan nan nan nan nan nan nan nan nan nan nan nan nan nan nan nan nan nan nan nan nan nan nan nan
nan nan 256 249 253 nan nan nan nan nan nan nan nan nan nan nan nan nan nan nan nan nan 233 235 236 239 239 237 236 234 233 233 238 nan nan nan nan nan nan nan nan nan nan nan nan nan nan nan nan nan nan nan nan nan nan nan nan nan nan nan nan nan nan nan nan nan nan nan nan nan nan nan nan nan nan nan nan nan nan nan nan nan nan nan nan nan
nan 258 nan nan nan 255 250 250 246 249 249 nan nan nan nan nan nan nan nan nan nan nan nan 237 237 236 236 235 236 244 nan nan nan nan nan nan nan nan nan nan nan nan nan nan nan nan nan nan nan nan nan nan nan nan nan nan nan nan nan nan nan nan nan nan nan nan nan nan nan nan nan nan nan nan nan nan nan nan nan nan nan nan nan nan nan nan
254 259 256 253 252 254 250 nan nan nan nan nan nan nan nan nan nan nan nan nan nan nan nan nan 240 239 236 234 231 236 nan nan nan nan nan nan nan nan nan nan nan nan nan nan nan nan nan nan nan nan nan nan nan nan nan nan nan nan nan nan nan nan nan nan nan nan nan nan nan nan nan nan nan nan nan nan nan nan nan nan nan nan nan nan nan nan